LRTR Weather Reports


Display with metric or nautical units.
time (UTC)temp
F
wind
direction
speed
MPH
gust
MPH
rain 1hr
in
rain 24hr
in
rain mn
in
humidity
%
barometer
mb
20260507123344 64 70 6.0 0.0 0.00 0.00 0.00 83 1015.0
20260507121805 63 100 6.0 0.0 0.00 0.00 0.00 88 1015.0
20260507120305 63 100 6.0 0.0 0.00 0.00 0.00 88 1015.0
20260507114805 63 150 5.0 0.0 0.00 0.00 0.00 88 1015.0
20260507113319 61 80 5.0 0.0 0.00 0.00 0.00 94 1015.0
20260507111805 61 80 5.0 0.0 0.00 0.00 0.00 94 1015.0
20260507110305 61 80 5.0 0.0 0.00 0.00 0.00 94 1015.0
20260507104804 63 110 6.0 0.0 0.00 0.00 0.00 83 1015.0
20260507103305 63 110 6.0 0.0 0.00 0.00 0.00 83 1015.0
20260507101805 61 180 5.0 0.0 0.00 0.00 0.00 94 1016.0
20260507100305 61 180 5.0 0.0 0.00 0.00 0.00 94 1016.0
20260507094805 61 190 7.0 0.0 0.00 0.00 0.00 94 1016.0
20260507093305 61 190 7.0 0.0 0.00 0.00 0.00 94 1016.0
20260507091806 61 200 5.0 0.0 0.00 0.00 0.00 100 1016.0
20260507090306 61 200 5.0 0.0 0.00 0.00 0.00 100 1016.0
20260507084805 61 260 5.0 0.0 0.00 0.00 0.00 100 1015.0
20260507083305 61 260 5.0 0.0 0.00 0.00 0.00 100 1015.0
20260507081805 61 240 6.0 0.0 0.00 0.00 0.00 100 1015.0
20260507080306 61 240 6.0 0.0 0.00 0.00 0.00 100 1015.0
20260507074805 63 240 7.0 0.0 0.00 0.00 0.00 94 1015.0
20260507073305 63 240 7.0 0.0 0.00 0.00 0.00 94 1015.0
20260507071805 63 240 7.0 0.0 0.00 0.00 0.00 94 1015.0
20260507070304 63 240 7.0 0.0 0.00 0.00 0.00 94 1015.0
20260507064805 61 220 7.0 0.0 0.00 0.00 0.00 94 1015.0
20260507063305 61 220 7.0 0.0 0.00 0.00 0.00 94 1015.0
20260507061817 63 230 7.0 0.0 0.00 0.00 0.00 83 1014.0
20260507060305 63 230 7.0 0.0 0.00 0.00 0.00 83 1014.0
20260507054805 63 210 5.0 0.0 0.00 0.00 0.00 73 1014.0
20260507053312 63 210 5.0 0.0 0.00 0.00 0.00 73 1014.0
20260507051805 59 250 5.0 0.0 0.00 0.00 0.00 82 1013.0
20260507050305 59 250 5.0 0.0 0.00 0.00 0.00 82 1013.0
20260507044805 57 200 5.0 0.0 0.00 0.00 0.00 88 1013.0
20260507043305 57 200 5.0 0.0 0.00 0.00 0.00 88 1013.0
20260507041805 59 190 6.0 0.0 0.00 0.00 0.00 77 1013.0
20260507040305 59 190 6.0 0.0 0.00 0.00 0.00 77 1013.0
20260507034805 57 150 5.0 0.0 0.00 0.00 0.00 82 1012.0
20260507033304 57 150 5.0 0.0 0.00 0.00 0.00 82 1012.0
20260507031805 57 110 7.0 0.0 0.00 0.00 0.00 77 1012.0
20260507030305 57 110 7.0 0.0 0.00 0.00 0.00 77 1012.0
20260507024805 57 100 7.0 0.0 0.00 0.00 0.00 77 1012.0
20260507023304 57 100 7.0 0.0 0.00 0.00 0.00 77 1012.0
20260507021805 59 100 7.0 0.0 0.00 0.00 0.00 72 1011.0
20260507020305 59 100 7.0 0.0 0.00 0.00 0.00 72 1011.0
20260507014805 59 110 8.0 0.0 0.00 0.00 0.00 72 1011.0
20260507013304 59 110 8.0 0.0 0.00 0.00 0.00 72 1011.0
20260507011805 57 90 7.0 0.0 0.00 0.00 0.00 77 1011.0
20260507010305 57 90 7.0 0.0 0.00 0.00 0.00 77 1011.0
20260507004804 59 80 9.0 0.0 0.00 0.00 0.00 72 1011.0
20260507003305 59 80 9.0 0.0 0.00 0.00 0.00 72 1011.0
20260507001805 63 200 5.0 0.0 0.00 0.00 0.00 59 1011.0
20260507000306 63 200 5.0 0.0 0.00 0.00 0.00 59 1011.0
20260506234805 59 110 9.0 0.0 0.00 0.00 0.00 72 1011.0
20260506233305 59 110 9.0 0.0 0.00 0.00 0.00 72 1011.0
20260506231805 55 100 8.0 0.0 0.00 0.00 0.00 82 1011.0
20260506230305 55 100 8.0 0.0 0.00 0.00 0.00 82 1011.0
20260506224804 54 80 9.0 0.0 0.00 0.00 0.00 88 1011.0
20260506223305 54 80 9.0 0.0 0.00 0.00 0.00 88 1011.0
20260506221804 54 100 7.0 0.0 0.00 0.00 0.00 82 1011.0
20260506220304 54 100 7.0 0.0 0.00 0.00 0.00 82 1011.0
20260506214821 54 80 7.0 0.0 0.00 0.00 0.00 82 1011.0
20260506213305 54 80 7.0 0.0 0.00 0.00 0.00 82 1011.0
20260506211805 54 80 5.0 0.0 0.00 0.00 0.00 82 1011.0
20260506210304 54 80 5.0 0.0 0.00 0.00 0.00 82 1011.0
20260506204805 54 90 7.0 0.0 0.00 0.00 0.00 88 1011.0
20260506203305 54 90 7.0 0.0 0.00 0.00 0.00 88 1011.0
20260506201805 55 90 6.0 0.0 0.00 0.00 0.00 82 1011.0
20260506200305 55 90 6.0 0.0 0.00 0.00 0.00 82 1011.0
20260506194824 55 50 6.0 0.0 0.00 0.00 0.00 82 1011.0
20260506193328 55 50 6.0 0.0 0.00 0.00 0.00 82 1011.0
20260506191805 57 50 6.0 0.0 0.00 0.00 0.00 82 1011.0
20260506190305 57 50 6.0 0.0 0.00 0.00 0.00 82 1011.0
20260506184810 61 90 6.0 0.0 0.00 0.00 0.00 72 1011.0
20260506183305 61 90 6.0 0.0 0.00 0.00 0.00 72 1011.0
20260506181805 66 100 3.0 0.0 0.00 0.00 0.00 60 1010.0
20260506180305 66 100 3.0 0.0 0.00 0.00 0.00 60 1010.0
20260506174805 73 140 3.0 0.0 0.00 0.00 0.00 38 1010.0
20260506173305 73 140 3.0 0.0 0.00 0.00 0.00 38 1010.0
20260506171805 75 150 5.0 0.0 0.00 0.00 0.00 36 1010.0
20260506170304 75 150 5.0 0.0 0.00 0.00 0.00 36 1010.0
20260506164805 75 160 5.0 0.0 0.00 0.00 0.00 36 1010.0
20260506163305 75 160 5.0 0.0 0.00 0.00 0.00 36 1010.0
20260506161805 77 180 5.0 0.0 0.00 0.00 0.00 32 1011.0
20260506160305 77 180 5.0 0.0 0.00 0.00 0.00 32 1011.0
20260506154805 77 180 6.0 0.0 0.00 0.00 0.00 32 1011.0
20260506153305 77 180 6.0 0.0 0.00 0.00 0.00 32 1011.0
20260506151804 79 210 8.0 0.0 0.00 0.00 0.00 30 1011.0
20260506150311 79 210 8.0 0.0 0.00 0.00 0.00 30 1011.0
20260506144805 77 200 7.0 0.0 0.00 0.00 0.00 32 1011.0
20260506143316 77 200 7.0 0.0 0.00 0.00 0.00 32 1011.0
20260506141805 79 6.0 0.0 0.00 0.00 0.00 30 1011.0
20260506140418 79 6.0 0.0 0.00 0.00 0.00 30 1011.0
20260506134830 79 190 8.0 0.0 0.00 0.00 0.00 30 1012.0
20260506133305 79 190 8.0 0.0 0.00 0.00 0.00 30 1012.0
20260506131805 79 190 9.0 0.0 0.00 0.00 0.00 32 1012.0
20260506130313 79 190 9.0 0.0 0.00 0.00 0.00 32 1012.0
20260506124805 77 170 8.0 0.0 0.00 0.00 0.00 34 1012.0